This demonstration page uses our WeatherBlox Daily Observations layout. Learn more.

Left ArrowRight Arrow

34.74481, -87.66753

Hourly Observations for June 1, 2020

Temp ( °F °C ) Dew Point ( °F °C ) Humidity (%) Winds ( mph kmh ) Pressure ( in mb ) Visibility ( mi km ) Precip ( " mm )
12:53 am 00:53 Clear 67 19.4 49 9.4 53 53 NE 8 13 30.17 1022 10 16 0.00 0.00
1:53 am 01:53 Clear 66 18.9 49 9.4 54 54 NE 8 13 30.17 1022 10 16 0.00 0.00
2:53 am 02:53 Clear 63 17.2 50 10 63 63 E 3 6 30.17 1022 10 16 0.00 0.00
3:53 am 03:53 Clear 59 15 51 10.6 75 75 NE 5 7 30.18 1022 10 16 0.00 0.00
4:53 am 04:53 Clear 61 16.1 49 9.4 65 65 NE 6 9 30.17 1022 10 16 0.00 0.00
5:53 am 05:53 Sunny 58 14.4 49 9.4 72 72 NE 3 6 30.18 1022 10 16 0.00 0.00
6:53 am 06:53 Sunny 63 17.2 50 10 63 63 NE 3 6 30.19 1023 10 16 0.00 0.00
7:53 am 07:53 Sunny 66 18.9 49 9.4 54 54 ENE 8 13 30.21 1023 10 16 0.00 0.00
8:53 am 08:53 Sunny 70 21.1 51 10.6 51 51 E 8 13 30.21 1023 10 16 0.00 0.00
9:53 am 09:53 Sunny 74 23.3 52 11.1 46 46 ENE 9 15 30.20 1023 10 16 0.00 0.00
10:53 am 10:53 Sunny 77 25 55 12.8 47 47 E 10 17 30.20 1023 10 16 0.00 0.00
11:53 am 11:53 Sunny 79 26.1 57 13.9 47 47 ENE 6 9 30.19 1022 10 16 0.00 0.00
12:53 pm 12:53 Sunny 82 27.8 58 14.4 44 44 VRB 3 6 30.17 1022 10 16 0.00 0.00
1:53 pm 13:53 Sunny 84 28.9 59 15 43 43 NE 7 11 30.14 1021 10 16 0.00 0.00
2:53 pm 14:53 Sunny 86 30 56 13.3 36 36 SSE 10 17 30.13 1020 10 16 0.00 0.00
3:53 pm 15:53 Sunny 86 30 58 14.4 39 39 SSE 5 7 30.11 1020 10 16 0.00 0.00
4:53 pm 16:53 Sunny 86 30 59 15 40 40 ESE 6 9 30.11 1020 10 16 0.00 0.00
5:53 pm 17:53 Sunny 84 28.9 64 17.8 51 51 ESE 3 6 30.10 1019 10 16 0.00 0.00
6:53 pm 18:53 Sunny 84 28.9 64 17.8 51 51 Calm 30.10 1019 10 16 0.00 0.00
7:53 pm 19:53 Sunny 78 25.6 66 18.9 67 67 Calm 30.11 1020 10 16 0.00 0.00
8:53 pm 20:53 Clear 74 23.3 65 18.3 74 74 Calm 30.11 1020 10 16 0.00 0.00
9:53 pm 21:53 Mostly Cloudy 73 22.8 66 18.9 79 79 Calm 30.13 1020 10 16 0.00 0.00
10:53 pm 22:53 Mostly Cloudy 73 22.8 67 19.4 81 81 Calm 30.14 1021 10 16 0.00 0.00
11:53 pm 23:53 Clear 71 21.7 65 18.3 81 81 Calm 30.13 1020 10 16 0.00 0.00

Powered by AerisWeather